Temperature
19 19 19 18 17 17 17 17 17 16 16 16 16 16 15 15 15 15 15 15 15 15 15 15 15 15 15 15 15 15 15 15 15 15 15 15 15 15 14 14 13 13 13
20 19 19 18 18 17 17 17 17 16 16 16 16 16 16 16 15 15 15 15 15 15 15 15 15 15 15 15 15 15 15 15 15 15 15 15 15 14 14 14 14 13 13
20 20 19 18 18 17 17 17 17 17 16 16 16 16 16 16 15 15 15 15 15 15 15 15 15 15 15 15 14 14 14 14 14 14 14 14 14 14 14 14 14 13 13
20 20 19 18 18 18 17 17 17 17 17 17 17 17 16 16 16 15 15 15 15 15 16 16 15 15 15 15 14 14 14 14 14 14 14 14 14 14 14 14 13 13 13
19 19 19 18 18 18 18 17 17 17 18 18 17 17 17 16 16 15 15 15 15 15 16 16 16 15 15 15 14 14 14 14 14 14 13 13 14 14 14 14 14 14 14
19 19 18 18 18 18 17 17 17 18 18 18 18 17 17 16 16 16 15 15 15 16 16 16 15 15 15 15 14 14 14 14 14 13 13 13 13 14 14 14 14 13 13
18 18 17 17 17 17 18 18 18 18 18 18 18 17 17 17 16 16 16 16 16 16 16 16 16 15 15 15 14 14 14 14 14 14 13 13 13 14 14 14 14 14 14
18 17 17 17 17 17 18 18 18 18 18 18 18 18 17 17 17 16 16 16 16 16 16 16 16 15 15 15 14 14 14 14 14 14 14 13 13 13 14 14 14 14 14
17 17 17 17 17 17 17 18 18 18 18 18 18 18 18 18 17 17 16 16 16 16 16 16 16 15 15 15 15 14 14 14 14 14 14 13 13 13 14 14 14 14 14
17 17 17 17 17 17 17 18 18 18 18 18 18 18 18 18 18 17 17 17 16 16 16 16 16 15 15 15 15 14 14 14 14 14 14 14 13 14 14 14 14 14 14
16 17 17 17 17 17 17 17 18 18 18 18 18 18 18 18 18 17 17 17 17 16 16 16 16 15 15 15 15 14 14 14 14 14 14 13 13 14 14 14 14 14 14
16 16 17 17 17 17 17 17 17 18 18 18 18 18 18 18 18 18 17 17 17 16 16 16 16 15 15 15 15 14 14 14 14 14 13 13 13 13 14 14 14 14 14
17 16 16 16 16 16 17 17 17 17 17 17 18 18 18 18 18 18 17 17 17 17 16 16 16 16 15 15 15 14 14 14 14 13 13 13 13 13 13 14 14 14 14
16 16 16 16 16 16 16 16 16 17 17 17 17 17 17 17 17 17 17 17 17 16 16 16 16 16 15 15 15 15 14 14 14 13 13 13 13 13 13 13 13 13 13
16 16 16 16 16 16 16 16 16 16 16 16 16 16 17 17 17 17 17 16 16 16 16 16 16 15 15 15 15 15 14 14 14 13 13 13 13 13 13 13 13 13 13
16 16 16 16 16 16 16 16 16 16 16 16 16 16 16 16 16 16 16 16 16 15 15 15 15 15 15 15 14 14 14 14 14 13 13 13 13 13 13 13 13 13 13
16 16 16 16 16 16 15 15 15 16 15 15 16 15 15 15 15 15 15 15 15 15 14 14 14 14 14 14 14 14 13 13 13 13 13 13 13 12 12 12 12 12 12
16 16 16 16 16 16 15 15 15 15 15 15 15 15 15 15 15 15 15 15 15 14 14 14 14 13 13 13 13 13 13 13 13 13 13 12 12 12 12 12 12 12 12
17 17 16 16 16 16 16 15 15 15 15 15 15 15 15 15 15 15 15 15 14 14 14 13 13 13 13 13 13 12 12 12 12 12 12 12 12 12 12 12 12 12 11
17 17 16 16 16 16 15 15 15 15 15 15 15 15 15 15 15 15 14 14 14 13 13 13 13 13 13 12 12 12 12 12 12 12 12 12 12 12 12 12 11 11 11
17 16 16 16 16 16 15 15 15 15 15 15 15 15 15 15 14 14 14 14 14 14 13 13 13 13 13 12 12 12 12 12 12 12 12 11 12 12 11 11 11 11 11
16 16 16 16 16 16 15 15 15 15 15 15 15 15 14 14 14 14 14 14 13 13 13 13 13 12 12 12 12 12 11 11 12 12 12 11 11 11 11 11 11 11 10
15 15 15 15 15 15 15 15 15 14 14 14 14 14 14 14 14 13 13 13 13 13 13 13 12 12 12 12 12 11 11 11 12 12 12 12 12 11 11 11 10 10 10
14 14 14 14 14 14 14 14 14 14 14 14 14 14 14 13 13 13 13 13 13 13 12 12 12 12 12 11 11 11 11 11 11 11 11 11 11 11 11 11 10 10 9
13 13 13 13 13 13 13 13 13 13 13 13 13 13 13 13 13 13 13 12 12 12 12 12 12 12 11 11 11 11 11 10 10 10 10 10 10 11 10 10 10 9 9
12 12 12 12 12 12 12 12 12 12 12 12 12 12 12 12 12 12 12 12 12 12 12 11 11 11 11 11 11 10 10 10 10 10 9 9 9 10 10 9 9 9 8
Wind_Speed
8 14 20 19 18 17 17 16 15 15 15 14 13 12 11 11 10 11 12 13 14 14 15 14 14 14 14 15 15 16 16 16 15 15 14 13 13 13 12 11 10 11 12
10 17 21 20 18 18 17 17 17 16 15 14 13 11 11 10 11 12 13 14 14 14 14 14 14 13 13 14 14 14 14 14 13 12 12 11 12 12 12 11 9 9 10
14 17 20 20 19 18 18 18 18 17 15 14 12 11 11 11 12 12 13 15 15 14 14 14 13 13 13 13 13 12 12 10 9 8 8 7 9 11 11 10 9 9 9
17 17 18 21 20 19 19 18 17 16 15 13 12 11 11 12 12 13 14 15 15 14 14 14 13 12 12 12 11 11 9 7 6 5 4 4 6 9 10 9 9 9 9
14 15 18 21 20 20 19 19 17 16 14 12 11 11 12 13 14 14 15 15 14 14 13 13 12 11 10 10 10 10 10 9 9 9 7 7 8 10 11 10 11 11 10
10 15 18 21 21 20 19 19 17 16 14 12 11 11 13 14 15 15 15 15 14 13 12 12 11 9 9 8 9 9 10 10 12 12 10 9 9 11 12 12 12 12 12
10 15 18 20 21 20 19 18 17 16 14 12 12 12 13 14 15 14 14 14 13 12 11 10 9 8 7 6 7 9 10 12 13 12 11 10 10 12 12 12 12 12 11
13 14 17 20 20 20 19 18 17 16 14 13 12 13 13 14 14 13 13 12 12 11 10 9 8 7 5 4 5 7 9 11 11 11 11 11 11 11 11 11 11 10 10
14 13 14 17 19 19 19 18 17 16 15 13 13 13 13 12 12 12 11 11 10 10 9 8 7 6 4 3 2 4 7 9 10 10 10 10 10 10 10 9 9 9 9
9 9 11 14 15 16 17 18 17 17 16 14 13 13 13 12 11 11 10 10 9 9 8 8 7 6 4 3 2 2 5 8 8 9 10 10 11 9 9 8 8 8 8
9 7 9 10 12 14 15 15 16 16 16 15 14 14 14 12 11 10 9 9 9 9 8 7 7 6 5 5 4 2 3 7 9 10 10 11 10 9 8 8 7 7 8
9 8 7 8 10 13 12 13 14 13 14 14 13 14 13 12 11 10 10 10 10 10 9 8 8 7 6 5 6 4 3 6 8 10 11 12 11 9 9 8 7 7 7
9 9 8 7 10 11 9 11 11 11 13 13 14 14 13 11 10 10 10 11 11 11 9 9 8 8 7 7 7 6 5 6 9 11 12 13 12 11 10 9 8 8 8
8 8 8 8 8 10 10 10 11 10 10 11 14 15 13 9 8 9 10 12 12 11 10 9 8 9 9 10 10 9 8 8 11 13 14 15 14 12 11 10 9 9 8
8 8 8 8 7 9 9 8 9 10 11 13 14 15 15 10 7 9 10 12 13 13 11 10 10 9 9 10 11 11 9 10 11 14 15 18 17 15 14 12 11 10 10
7 7 7 7 7 8 6 6 7 11 12 13 14 16 18 15 11 10 9 11 12 14 14 13 11 9 8 9 8 10 11 11 12 15 16 18 19 18 16 15 13 13 12
7 6 6 7 7 7 6 7 7 9 11 11 13 16 18 17 15 12 8 8 12 15 15 12 11 9 7 6 6 8 9 10 12 14 16 17 18 19 18 17 16 15 14
6 5 5 5 6 6 6 6 6 8 9 9 11 13 16 17 17 13 8 8 13 14 12 7 7 7 7 6 6 6 6 7 10 13 15 16 17 17 19 19 18 17 16
5 4 4 3 4 5 5 5 6 6 7 8 9 10 12 14 15 13 9 9 12 10 8 7 8 6 7 7 7 6 6 5 6 10 11 15 17 18 19 20 21 20 18
5 4 3 2 0 2 3 2 2 3 4 6 7 9 11 12 12 11 8 9 10 6 8 7 8 7 6 7 7 7 6 6 5 6 9 13 16 18 20 19 20 20 21
6 6 5 4 2 1 1 1 2 4 4 4 5 8 9 10 11 10 6 6 6 8 9 9 8 8 8 4 3 4 4 5 7 7 6 7 11 17 19 20 19 19 19
6 6 6 5 4 3 1 1 1 2 3 4 3 5 7 8 9 8 7 7 7 7 8 9 8 6 5 5 5 3 4 4 6 8 7 8 9 11 14 18 19 19 19
6 5 5 5 4 4 2 1 1 1 2 2 2 3 5 7 8 8 8 6 7 8 8 9 9 9 8 7 6 6 5 7 5 4 7 8 8 8 9 13 17 19 20
4 4 5 5 5 5 4 3 2 1 1 2 3 3 5 6 6 7 7 7 7 7 8 9 9 8 9 8 6 7 6 4 5 4 3 5 7 8 9 8 12 17 19
5 5 5 6 6 6 6 5 3 2 1 2 3 4 4 4 5 6 6 5 5 6 7 8 8 8 8 9 7 5 7 6 5 5 6 4 3 4 5 6 7 12 17
5 5 5 6 6 6 6 6 5 4 3 4 4 4 4 4 4 6 6 4 4 5 6 7 7 8 8 9 8 7 6 5 6 7 10 7 5 3 2 3 4 6 11
Wind_Direction
153 157 150 148 146 143 140 137 132 126 121 114 108 104 103 102 103 105 103 101 98 93 90 87 85 84 84 85 87 89 89 88 87 86 84 82 79 82 89 85 85 80 82
147 154 150 148 146 143 138 133 128 123 118 113 109 107 108 110 113 112 108 106 103 97 95 92 90 89 87 88 90 91 91 90 90 89 85 83 84 84 86 89 92 89 85
142 150 150 147 145 141 136 132 128 123 119 114 111 111 113 118 121 117 112 110 105 101 99 97 96 94 91 90 90 91 91 93 94 94 90 86 91 93 90 88 91 90 88
143 148 150 146 144 141 137 133 129 125 120 116 115 116 119 125 126 122 117 113 109 106 104 103 100 98 95 92 90 87 85 82 88 108 105 90 96 99 96 90 88 87 85
136 145 151 147 145 143 139 136 132 128 125 121 120 121 124 127 127 125 119 117 115 113 112 110 107 103 98 93 88 81 76 77 93 105 107 97 96 99 94 87 85 83 82
129 142 151 148 147 145 142 140 137 134 131 128 127 129 128 126 126 124 123 122 122 122 120 117 114 109 101 94 86 76 74 90 105 106 103 98 93 96 93 90 87 82 82
133 143 152 150 149 148 146 144 141 139 138 136 135 135 132 129 129 129 130 131 132 131 129 126 123 119 109 98 86 75 81 102 110 108 106 102 100 98 94 90 86 83 81
143 148 153 153 151 151 150 148 147 145 145 144 143 141 137 135 136 137 138 140 142 142 141 139 137 136 129 113 92 83 92 108 113 113 112 109 108 103 98 95 92 88 85
145 147 150 153 154 154 154 154 153 152 152 152 150 148 144 142 145 147 149 152 154 155 154 154 154 158 162 159 116 94 103 121 129 128 123 120 119 114 108 104 101 96 93
141 146 148 152 155 157 159 160 159 159 158 157 155 153 152 153 155 159 161 164 167 169 169 171 174 180 192 208 206 136 129 137 151 150 142 136 130 125 120 116 112 108 103
147 152 151 153 156 158 161 166 164 165 165 162 161 161 161 163 167 172 176 178 180 182 185 189 193 200 213 233 243 215 153 152 162 165 160 153 145 139 134 130 125 121 117
162 169 167 164 164 163 168 168 168 169 171 169 170 170 173 177 182 186 191 193 193 194 198 203 207 211 221 244 259 252 190 170 176 180 178 167 159 154 150 147 143 138 133
164 169 176 176 174 172 171 168 172 173 176 180 183 185 187 189 196 201 200 203 202 202 206 214 216 217 225 240 253 252 226 196 189 191 191 180 172 167 165 164 161 156 151
164 169 172 172 175 181 177 176 179 179 184 190 196 197 194 195 203 205 204 205 204 204 207 214 219 226 235 243 248 251 238 210 196 197 198 190 182 178 176 176 176 172 169
178 181 179 173 170 176 177 183 186 190 195 201 203 206 203 200 202 203 207 208 209 208 209 214 222 229 236 242 244 242 235 218 203 197 198 196 190 186 185 186 188 187 184
195 197 188 182 175 171 175 183 189 196 203 205 208 211 209 208 204 201 204 209 213 214 215 216 220 226 231 233 236 234 230 220 208 201 200 200 197 193 192 193 196 197 196
196 203 201 196 184 181 188 192 192 194 201 206 212 216 214 213 208 205 206 209 214 216 217 218 224 229 234 234 234 231 226 218 210 207 205 203 202 200 198 201 203 203 204
178 189 205 204 193 198 202 206 206 203 203 210 215 218 218 217 214 210 211 214 213 212 213 212 215 221 230 230 232 231 224 217 213 211 209 207 205 205 205 207 207 208 209
154 161 175 186 196 210 216 218 221 220 219 222 221 222 224 222 219 217 221 223 214 211 212 215 215 211 222 228 231 233 228 220 213 211 211 212 210 209 208 211 210 210 211
100 100 103 110 184 223 220 226 238 240 241 237 232 231 230 228 226 222 227 228 217 216 221 218 218 216 218 221 228 233 231 230 221 214 213 214 215 215 212 212 211 212 211
69 66 61 62 29 48 120 201 224 240 248 249 245 244 240 238 235 228 232 230 222 226 228 224 221 223 228 208 214 253 263 243 236 230 216 213 217 217 215 214 211 208 210
71 62 56 49 43 46 79 194 215 244 254 251 263 264 258 254 249 240 234 238 231 232 235 230 221 225 225 189 192 214 267 282 254 234 219 220 221 217 217 217 213 209 207
68 54 48 36 37 34 26 45 26 24 351 335 303 285 277 269 263 253 246 242 241 232 236 233 223 222 230 215 199 192 210 236 255 262 234 228 220 215 218 215 214 212 209
83 59 48 40 40 30 32 51 67 96 266 276 289 295 305 301 287 275 263 255 251 246 243 242 234 229 229 231 219 221 222 203 213 265 268 245 231 225 221 218 215 213 210
87 65 49 48 41 32 37 45 56 40 311 307 322 326 326 324 322 312 289 273 264 259 256 252 247 238 232 234 224 215 230 231 223 234 262 262 259 246 232 226 219 214 211
80 64 54 54 41 31 36 40 48 39 13 5 355 347 339 336 340 346 333 310 285 276 271 265 256 250 244 242 238 222 213 214 218 224 243 246 244 251 254 243 232 218 209
Height
1539 1542 1545 1547 1549 1551 1552 1554 1555 1555 1556 1556 1556 1556 1556 1556 1556 1556 1557 1557 1557 1557 1557 1556 1556 1556 1557 1558 1558 1558 1558 1558 1558 1557 1557 1556 1556 1555 1555 1554 1554 1554 1553
1539 1542 1545 1548 1550 1551 1553 1554 1555 1556 1556 1557 1557 1556 1556 1556 1557 1557 1558 1559 1559 1558 1558 1557 1557 1557 1558 1558 1559 1559 1559 1559 1559 1558 1558 1558 1557 1557 1556 1556 1556 1555 1555
1540 1542 1545 1548 1550 1552 1553 1554 1555 1556 1557 1557 1557 1557 1557 1557 1558 1559 1560 1560 1560 1560 1559 1558 1558 1558 1558 1559 1559 1560 1560 1560 1560 1560 1559 1559 1559 1558 1558 1558 1558 1557 1557
1541 1543 1546 1549 1550 1552 1553 1554 1556 1557 1557 1557 1558 1558 1558 1559 1560 1560 1561 1561 1562 1561 1561 1560 1560 1560 1560 1560 1561 1561 1561 1561 1561 1561 1561 1560 1560 1560 1560 1560 1559 1559 1559
1541 1543 1546 1549 1551 1552 1554 1555 1556 1557 1557 1558 1559 1559 1559 1560 1561 1562 1562 1563 1563 1563 1563 1562 1562 1562 1562 1562 1562 1562 1562 1562 1562 1562 1562 1562 1562 1562 1562 1561 1561 1561 1560
1542 1544 1546 1549 1551 1553 1554 1555 1556 1557 1558 1559 1559 1560 1561 1561 1562 1563 1564 1564 1564 1564 1564 1564 1564 1564 1564 1564 1564 1564 1564 1564 1564 1564 1563 1563 1563 1563 1563 1563 1562 1562 1562
1542 1544 1547 1550 1551 1553 1554 1555 1556 1557 1558 1559 1560 1561 1561 1562 1563 1564 1565 1565 1565 1566 1566 1566 1566 1566 1566 1566 1565 1565 1565 1565 1565 1565 1565 1565 1565 1564 1564 1564 1563 1563 1562
1543 1545 1547 1550 1552 1553 1554 1556 1557 1558 1559 1559 1560 1561 1562 1563 1564 1565 1565 1566 1566 1567 1567 1567 1567 1567 1567 1567 1567 1566 1566 1566 1566 1566 1566 1565 1565 1565 1564 1564 1563 1562 1562
1544 1546 1547 1549 1551 1553 1555 1556 1557 1558 1559 1560 1561 1562 1563 1563 1564 1565 1566 1566 1567 1567 1568 1568 1568 1568 1568 1568 1568 1567 1567 1567 1567 1567 1566 1566 1566 1565 1564 1563 1563 1562 1561
1544 1546 1547 1549 1551 1553 1554 1556 1557 1558 1559 1560 1561 1562 1563 1564 1564 1565 1566 1566 1567 1567 1568 1568 1569 1569 1569 1569 1568 1568 1567 1567 1567 1567 1567 1566 1566 1565 1564 1563 1562 1561 1559
1544 1546 1547 1549 1551 1552 1554 1555 1557 1558 1559 1560 1561 1562 1563 1564 1564 1565 1566 1566 1567 1567 1568 1568 1568 1569 1569 1569 1568 1568 1567 1567 1567 1567 1566 1566 1565 1565 1564 1562 1561 1560 1559
1543 1545 1547 1548 1550 1552 1553 1555 1556 1557 1558 1560 1561 1561 1562 1563 1564 1565 1565 1566 1566 1567 1567 1568 1568 1568 1568 1568 1568 1568 1567 1566 1566 1566 1566 1565 1565 1564 1563 1562 1560 1559 1558
1543 1544 1546 1548 1550 1551 1553 1554 1555 1556 1558 1559 1560 1560 1561 1562 1563 1564 1564 1565 1566 1566 1566 1567 1567 1567 1567 1567 1567 1567 1566 1565 1565 1565 1565 1564 1564 1563 1562 1561 1560 1558 1557
1542 1544 1545 1547 1548 1550 1551 1553 1554 1555 1556 1558 1559 1559 1560 1560 1561 1562 1563 1564 1564 1565 1565 1565 1565 1566 1566 1566 1566 1566 1565 1564 1564 1563 1563 1563 1562 1562 1561 1560 1559 1558 1557
1541 1543 1544 1546 1547 1548 1550 1551 1553 1554 1555 1556 1557 1558 1559 1559 1560 1560 1561 1561 1562 1562 1563 1563 1563 1563 1563 1563 1563 1563 1563 1563 1562 1562 1561 1561 1561 1560 1559 1559 1558 1557 1556
1541 1542 1543 1544 1546 1547 1548 1549 1551 1552 1553 1554 1555 1556 1557 1557 1557 1558 1558 1558 1559 1560 1560 1561 1561 1561 1560 1560 1560 1560 1560 1560 1560 1559 1559 1559 1558 1558 1557 1557 1556 1555 1555
1539 1541 1542 1543 1544 1545 1547 1548 1549 1550 1551 1551 1552 1554 1554 1555 1555 1555 1555 1555 1556 1557 1557 1557 1557 1557 1557 1557 1556 1557 1557 1557 1557 1556 1556 1556 1556 1555 1555 1555 1554 1554 1553
1537 1538 1540 1541 1542 1544 1545 1546 1547 1548 1548 1549 1550 1551 1551 1552 1552 1552 1552 1552 1553 1553 1553 1553 1553 1553 1553 1553 1553 1553 1553 1553 1553 1553 1553 1552 1552 1552 1552 1552 1552 1551 1551
1534 1536 1537 1538 1539 1541 1542 1543 1544 1545 1546 1546 1547 1548 1548 1549 1549 1549 1549 1549 1550 1550 1549 1549 1549 1549 1549 1549 1549 1549 1549 1549 1549 1549 1548 1548 1548 1548 1548 1548 1548 1548 1548
1532 1533 1534 1535 1536 1537 1539 1540 1540 1541 1542 1543 1543 1544 1544 1545 1545 1545 1545 1545 1545 1545 1545 1545 1545 1545 1545 1545 1545 1544 1544 1544 1544 1544 1543 1543 1543 1543 1543 1544 1544 1544 1544
1529 1530 1531 1532 1533 1534 1534 1535 1536 1536 1537 1538 1539 1539 1540 1540 1540 1540 1540 1540 1540 1540 1540 1540 1540 1540 1539 1540 1539 1538 1537 1538 1537 1537 1537 1537 1537 1537 1537 1537 1538 1539 1539
1526 1527 1528 1529 1529 1530 1530 1531 1531 1532 1532 1533 1534 1534 1534 1535 1535 1535 1534 1534 1534 1534 1534 1534 1534 1533 1533 1534 1533 1532 1531 1530 1529 1530 1530 1530 1530 1531 1531 1531 1531 1532 1533
1523 1524 1524 1525 1525 1525 1526 1526 1527 1527 1527 1528 1528 1528 1529 1529 1529 1529 1528 1528 1528 1528 1527 1527 1528 1527 1527 1527 1527 1527 1525 1521 1522 1522 1522 1523 1523 1523 1523 1524 1524 1525 1526
1520 1520 1520 1521 1521 1521 1521 1522 1522 1522 1522 1523 1523 1523 1523 1523 1523 1522 1522 1522 1521 1521 1521 1521 1521 1521 1520 1520 1520 1519 1519 1518 1518 1515 1515 1515 1516 1515 1515 1516 1516 1517 1518
1517 1517 1517 1517 1518 1518 1517 1517 1517 1517 1517 1517 1517 1517 1517 1517 1516 1516 1515 1515 1515 1514 1514 1514 1514 1514 1513 1513 1513 1512 1512 1511 1511 1510 1508 1508 1508 1508 1508 1508 1509 1509 1510
1514 1514 1514 1514 1514 1514 1514 1514 1513 1513 1513 1512 1512 1511 1511 1511 1510 1510 1509 1508 1508 1508 1507 1507 1507 1507 1507 1506 1506 1506 1505 1505 1504 1503 1501 1500 1500 1501 1501 1501 1501 1501 1502